Total_Precipitation_Accumulation
0.91 0.91 0.94 1.03 1.10 1.12 1.09 1.09 1.16 1.26 1.35 1.56 1.86 2.38 2.63 2.70 2.56 2.49 2.40 2.20 1.96 1.93 2.12 2.14 2.12 2.10 2.11 2.10 2.04 2.26 2.20 1.91 1.81 2.03 2.01 1.81 1.61 1.51 1.47 1.51 1.74 1.86 1.76
0.91 0.88 0.88 0.93 0.97 0.97 0.99 1.16 1.24 1.35 1.44 1.63 1.90 2.27 2.69 2.76 2.69 2.55 2.44 2.34 2.20 2.15 2.18 2.42 2.53 2.49 2.68 2.70 2.48 2.60 2.63 2.25 2.02 2.35 2.72 2.43 2.16 1.66 1.51 1.63 1.68 1.77 1.88
0.77 0.80 0.84 0.88 0.90 0.90 0.88 0.98 1.18 1.42 1.73 1.97 2.23 2.38 2.65 2.74 2.72 2.58 2.50 2.51 2.43 2.29 2.37 2.48 2.65 2.65 2.75 2.96 3.08 2.97 3.05 2.83 2.39 2.28 2.67 2.66 2.50 2.23 1.81 1.70 1.76 1.87 1.92
0.72 0.73 0.80 0.86 0.83 0.80 0.83 0.89 1.03 1.33 1.74 2.08 2.29 2.52 2.87 2.95 2.79 2.69 2.57 2.57 2.59 2.58 2.69 2.69 2.74 2.75 2.76 2.88 3.05 3.04 3.21 3.34 2.92 2.55 2.29 2.14 2.18 2.37 2.19 1.89 1.82 1.94 1.93
0.59 0.65 0.68 0.72 0.76 0.82 0.88 0.95 1.14 1.42 1.75 1.96 2.21 2.55 2.73 2.83 2.89 2.75 2.68 2.65 2.68 2.70 2.77 2.83 2.93 2.90 2.88 2.80 3.02 3.12 3.24 3.19 3.14 3.01 2.83 2.66 2.41 2.05 2.21 2.22 2.01 1.90 1.78
0.49 0.59 0.71 0.77 0.85 0.89 0.99 1.11 1.26 1.46 1.72 1.93 2.18 2.33 2.49 2.65 2.71 2.73 2.65 2.61 2.66 2.76 2.64 2.57 2.74 2.79 2.80 2.75 2.90 3.04 3.21 3.21 3.24 3.17 2.88 2.90 2.82 2.46 2.40 2.23 2.05 2.08 1.88
0.58 0.69 0.85 1.01 1.09 1.12 1.16 1.26 1.39 1.58 1.72 1.84 1.99 2.07 2.15 2.27 2.25 2.38 2.42 2.54 2.55 2.58 2.59 2.50 2.53 2.57 2.50 2.47 2.58 2.62 2.71 2.86 3.05 2.96 2.70 2.65 2.52 2.52 2.64 2.55 2.28 2.07 1.83
0.74 0.89 1.07 1.30 1.39 1.43 1.44 1.47 1.53 1.60 1.64 1.68 1.79 1.91 1.97 2.01 1.98 1.96 1.96 2.12 2.28 2.30 2.36 2.39 2.35 2.40 2.42 2.37 2.45 2.45 2.46 2.51 2.56 2.50 2.61 2.66 2.49 2.43 2.46 2.55 2.75 2.52 2.19
1.01 1.16 1.33 1.46 1.47 1.54 1.55 1.56 1.60 1.61 1.60 1.63 1.67 1.66 1.69 1.74 1.75 1.73 1.79 1.82 1.88 1.90 1.93 1.99 2.13 2.25 2.30 2.31 2.42 2.48 2.44 2.36 2.35 2.44 2.52 2.46 2.39 2.38 2.33 2.36 2.57 2.75 2.55
1.35 1.53 1.71 1.70 1.66 1.68 1.78 1.73 1.68 1.65 1.68 1.70 1.68 1.60 1.62 1.65 1.64 1.55 1.60 1.55 1.52 1.53 1.59 1.68 1.86 2.16 2.29 2.31 2.36 2.41 2.42 2.41 2.34 2.43 2.55 2.59 2.54 2.55 2.52 2.44 2.45 2.44 2.49
1.72 1.86 1.97 1.98 1.83 1.72 1.72 1.67 1.62 1.61 1.57 1.62 1.70 1.66 1.60 1.61 1.63 1.54 1.46 1.43 1.43 1.42 1.49 1.56 1.70 1.86 2.08 2.29 2.44 2.43 2.36 2.34 2.29 2.21 2.33 2.48 2.54 2.65 2.70 2.74 2.66 2.55 2.51
1.64 1.71 1.73 1.84 1.76 1.67 1.58 1.55 1.50 1.39 1.41 1.48 1.59 1.67 1.58 1.54 1.54 1.45 1.49 1.40 1.33 1.34 1.34 1.48 1.68 1.80 1.89 1.97 2.06 2.12 2.15 2.17 2.18 2.12 2.08 2.15 2.24 2.36 2.53 2.65 2.63 2.65 2.56
1.36 1.50 1.61 1.57 1.61 1.64 1.56 1.66 1.71 1.56 1.57 1.62 1.74 1.74 1.64 1.58 1.55 1.40 1.47 1.41 1.35 1.34 1.32 1.38 1.53 1.63 1.73 1.79 1.84 1.96 2.06 2.07 1.99 1.97 1.86 1.83 1.94 2.07 2.22 2.30 2.42 2.57 2.62
1.22 1.28 1.40 1.38 1.51 1.63 1.61 1.69 1.74 1.70 1.71 1.81 1.88 1.77 1.68 1.62 1.57 1.44 1.37 1.36 1.37 1.35 1.37 1.48 1.53 1.58 1.60 1.73 1.79 1.86 1.86 1.82 1.72 1.69 1.61 1.59 1.62 1.75 1.93 2.05 2.27 2.50 2.63
1.06 1.03 1.07 1.14 1.27 1.34 1.37 1.42 1.47 1.50 1.61 1.70 1.72 1.72 1.60 1.48 1.43 1.47 1.30 1.30 1.39 1.39 1.43 1.49 1.56 1.59 1.59 1.66 1.76 1.71 1.61 1.60 1.58 1.51 1.33 1.28 1.35 1.40 1.54 1.55 1.83 2.13 2.39
0.85 0.84 0.85 0.89 0.98 0.93 0.95 1.01 1.17 1.34 1.50 1.55 1.53 1.50 1.44 1.45 1.41 1.35 1.29 1.27 1.29 1.33 1.36 1.36 1.51 1.61 1.50 1.71 1.73 1.54 1.36 1.33 1.39 1.37 1.23 1.16 1.19 1.14 1.17 1.21 1.46 1.77 1.96
0.74 0.77 0.78 0.76 0.81 0.80 0.84 0.89 0.99 1.16 1.29 1.34 1.31 1.22 1.19 1.22 1.26 1.25 1.27 1.29 1.28 1.29 1.32 1.26 1.35 1.40 1.51 1.59 1.41 1.40 1.29 1.28 1.28 1.30 1.32 1.20 1.11 1.23 1.11 1.09 1.19 1.28 1.43
0.64 0.70 0.72 0.71 0.74 0.82 0.88 0.95 1.01 1.03 1.12 1.22 1.21 1.16 1.11 1.08 1.10 1.14 1.21 1.30 1.25 1.22 1.25 1.23 1.17 1.22 1.37 1.39 1.23 1.30 1.20 1.29 1.33 1.35 1.44 1.43 1.32 1.30 1.39 1.31 1.29 1.23 1.18
0.47 0.48 0.51 0.54 0.61 0.68 0.75 0.79 0.81 0.82 0.87 0.94 0.99 0.98 0.93 0.98 1.07 1.06 1.20 1.30 1.21 1.20 1.16 1.17 1.13 1.14 1.20 1.22 1.13 1.16 1.16 1.30 1.30 1.24 1.39 1.46 1.36 1.49 1.62 1.65 1.64 1.53 1.34
0.33 0.31 0.36 0.39 0.44 0.52 0.66 0.72 0.69 0.64 0.67 0.73 0.75 0.81 0.83 0.88 0.97 1.07 1.18 1.23 1.20 1.20 1.13 1.11 1.06 1.03 1.02 1.12 1.01 1.10 1.16 1.24 1.27 1.27 1.31 1.53 1.45 1.46 1.46 1.48 1.59 1.54 1.35
0.31 0.29 0.31 0.36 0.41 0.48 0.58 0.62 0.66 0.62 0.62 0.68 0.69 0.73 0.76 0.82 0.95 1.07 1.04 1.00 1.03 1.08 1.08 1.10 1.03 0.98 1.03 1.13 1.13 1.17 1.15 1.22 1.26 1.36 1.39 1.38 1.55 1.41 1.35 1.33 1.28 1.38 1.38
0.28 0.29 0.30 0.34 0.43 0.46 0.47 0.50 0.52 0.53 0.56 0.59 0.63 0.62 0.63 0.68 0.76 0.84 0.93 0.93 0.93 0.97 0.95 0.95 0.95 0.91 0.98 1.05 1.05 1.07 1.10 1.19 1.15 1.19 1.20 1.18 1.34 1.20 1.15 1.08 1.12 1.24 1.30
0.24 0.28 0.34 0.40 0.45 0.48 0.46 0.45 0.46 0.49 0.55 0.60 0.62 0.59 0.58 0.60 0.66 0.74 0.85 0.93 0.96 0.94 0.91 0.83 0.80 0.79 0.81 0.88 0.93 0.89 0.88 0.94 0.95 0.93 1.10 1.13 1.12 1.05 0.97 1.03 1.08 1.11 1.13
0.24 0.28 0.36 0.40 0.46 0.47 0.47 0.46 0.46 0.47 0.51 0.57 0.63 0.63 0.64 0.66 0.68 0.70 0.76 0.89 0.95 0.87 0.79 0.79 0.79 0.81 0.81 0.77 0.77 0.79 0.77 0.78 0.86 0.86 0.96 1.01 0.96 0.94 0.94 0.98 1.02 1.04 1.10
0.25 0.29 0.34 0.39 0.44 0.49 0.48 0.48 0.47 0.46 0.48 0.55 0.60 0.60 0.64 0.68 0.68 0.64 0.63 0.71 0.78 0.83 0.85 0.84 0.84 0.87 0.87 0.80 0.75 0.71 0.74 0.79 0.89 0.97 0.94 0.93 0.91 0.89 0.95 0.97 0.97 1.03 1.09
0.30 0.33 0.34 0.38 0.39 0.45 0.51 0.52 0.56 0.54 0.53 0.55 0.59 0.60 0.62 0.68 0.67 0.64 0.64 0.66 0.67 0.76 0.77 0.77 0.79 0.72 0.69 0.71 0.67 0.64 0.69 0.78 0.88 1.02 1.07 1.09 1.12 1.13 1.12 1.08 0.99 0.95 0.99